SCP
0 0 0 0 0 0 0 0 0 0 0 0 0 0 0 0 0 0 0 0 0 0
0 0 0 0 0 0 0 0 0 0 0 0 0 0 0 0 0 0 0 0 0 0
0 0 0 0 0 0 0 0 0 0 0 0 0 0 0 0 0 0 0 0 0 0
0 0 0 0 0 0 0 0 0 0 0 0 0 0 0 0 0 0 0 0 0 0
0 0 0 0 0 0 0 0 0 0 0 0 0 0 0 0 0 0 0 0 0 0
0 0 0 0 0 0 0 0 0 0 0 0 0 0 0 0 0 0 0 0 0 0
0 0 0 0 0 0 0 0 0 0 0 0 0 0 0 0 0 0 0 0 0 0
0 0 0 0 0 0 0 0 0 0 0 0 0 0 0 0 0 0 0 0 0 0
0 0 0 0 0 0 0 0 0 0 0 0 0 0 0 0 0 0 0 0 0 0
0 0 0 0 0 0 0 0 0 0 0 0 0 0 0 0 0 0 0 0 0 0
0 0 0 0 0 0 0 0 0 0 0 0 0 0 0 0 0 0 0 0 0 0
0 0 0 0 0 0 0 0 0 0 0 0 0 0 0 0 0 0 0 0 0 0
0 0 0 0 0 0 0 0 0 0 0 0 0 0 0 0 0 0 0 0 0 0
0 0 0 0 0 0 0 0 0 0 0 0 0 0 0 0 0 0 0 0 0 0
Wind_Speed_500mb
72 77 78 78 77 74 78 80 80 85 98 99 98 99 105 99 99 108 101 119 96 107
57 62 64 66 67 68 69 71 73 76 80 91 98 101 101 109 104 100 95 109 102 112
48 52 55 59 64 65 64 66 69 72 75 80 86 99 101 105 104 107 93 109 92 110
34 41 48 51 55 58 61 63 65 65 68 72 77 86 94 100 102 105 97 104 99 109
22 29 39 46 49 50 55 57 60 63 66 68 70 72 73 89 94 95 101 95 99 101
33 36 42 45 47 51 54 53 58 62 67 68 69 68 74 82 90 94 99 103 100 93
49 51 54 55 56 54 52 54 58 61 64 66 67 71 71 69 81 90 93 96 93 90
54 55 57 60 63 65 62 60 59 61 66 69 72 72 69 69 74 78 79 85 89 89
58 58 59 62 62 65 68 66 64 68 70 72 74 73 72 71 75 79 81 83 87 91
57 62 59 58 61 65 68 69 68 67 69 74 74 72 71 67 76 76 81 84 84 84
54 59 60 61 62 63 65 68 69 69 68 70 72 70 69 66 73 76 78 78 77 78
54 60 64 67 63 60 62 65 67 68 68 70 70 64 67 69 74 77 79 76 76 75
54 57 57 62 66 64 62 66 64 67 67 68 68 64 68 71 74 75 77 77 77 76
53 59 60 61 61 64 65 65 66 68 67 67 67 63 70 73 79 74 76 78 77 77
Wind_Direction_500mb
256 258 260 261 261 261 259 258 256 253 248 250 252 252 249 250 246 250 253 242 248 248
258 259 260 263 263 262 261 260 259 255 253 251 251 252 252 250 254 244 261 244 256 244
261 261 263 264 263 264 264 261 259 257 254 252 250 247 249 252 250 249 252 257 259 253
264 266 266 268 270 270 269 266 263 259 257 256 255 249 245 247 250 251 255 253 251 260
277 272 271 274 277 277 274 271 267 263 260 258 257 252 248 245 247 250 254 253 254 258
296 291 288 282 280 278 276 273 267 264 261 260 258 251 247 247 250 251 254 256 254 255
302 302 299 292 283 279 278 275 272 268 265 262 259 255 254 251 249 252 253 255 256 257
294 293 293 291 287 282 281 279 275 269 264 261 259 257 253 251 252 253 255 255 257 258
292 290 288 286 285 280 277 276 275 272 268 263 259 257 254 254 254 254 255 255 256 255
293 291 288 284 281 277 277 276 274 274 270 266 262 259 254 257 258 257 257 258 258 256
301 295 292 287 282 279 278 276 276 274 271 267 263 259 253 256 258 258 259 258 257 257
318 312 304 295 289 283 277 274 273 274 272 270 266 258 252 254 258 260 261 259 256 254
317 312 309 306 299 289 278 274 269 267 266 266 264 256 251 252 256 257 259 259 255 250
313 311 307 303 299 294 287 277 271 268 264 262 259 254 251 250 256 256 257 256 253 249
Wind_Speed_850mb
72 77 78 78 77 74 78 80 80 85 98 99 98 99 105 99 99 108 101 119 96 107
57 62 64 66 67 68 69 71 73 76 80 91 98 101 101 109 104 100 95 109 102 112
48 52 55 59 64 65 64 66 69 72 75 80 86 99 101 105 104 107 93 109 92 110
34 41 48 51 55 58 61 63 65 65 68 72 77 86 94 100 102 105 97 104 99 109
22 29 39 46 49 50 55 57 60 63 66 68 70 72 73 89 94 95 101 95 99 101
33 36 42 45 47 51 54 53 58 62 67 68 69 68 74 82 90 94 99 103 100 93
49 51 54 55 56 54 52 54 58 61 64 66 67 71 71 69 81 90 93 96 93 90
54 55 57 60 63 65 62 60 59 61 66 69 72 72 69 69 74 78 79 85 89 89
58 58 59 62 62 65 68 66 64 68 70 72 74 73 72 71 75 79 81 83 87 91
57 62 59 58 61 65 68 69 68 67 69 74 74 72 71 67 76 76 81 84 84 84
54 59 60 61 62 63 65 68 69 69 68 70 72 70 69 66 73 76 78 78 77 78
54 60 64 67 63 60 62 65 67 68 68 70 70 64 67 69 74 77 79 76 76 75
54 57 57 62 66 64 62 66 64 67 67 68 68 64 68 71 74 75 77 77 77 76
53 59 60 61 61 64 65 65 66 68 67 67 67 63 70 73 79 74 76 78 77 77
Wind_Direction_850mb
256 258 260 261 261 261 259 258 256 253 248 250 252 252 249 250 246 250 253 242 248 248
258 259 260 263 263 262 261 260 259 255 253 251 251 252 252 250 254 244 261 244 256 244
261 261 263 264 263 264 264 261 259 257 254 252 250 247 249 252 250 249 252 257 259 253
264 266 266 268 270 270 269 266 263 259 257 256 255 249 245 247 250 251 255 253 251 260
277 272 271 274 277 277 274 271 267 263 260 258 257 252 248 245 247 250 254 253 254 258
296 291 288 282 280 278 276 273 267 264 261 260 258 251 247 247 250 251 254 256 254 255
302 302 299 292 283 279 278 275 272 268 265 262 259 255 254 251 249 252 253 255 256 257
294 293 293 291 287 282 281 279 275 269 264 261 259 257 253 251 252 253 255 255 257 258
292 290 288 286 285 280 277 276 275 272 268 263 259 257 254 254 254 254 255 255 256 255
293 291 288 284 281 277 277 276 274 274 270 266 262 259 254 257 258 257 257 258 258 256
301 295 292 287 282 279 278 276 276 274 271 267 263 259 253 256 258 258 259 258 257 257
318 312 304 295 289 283 277 274 273 274 272 270 266 258 252 254 258 260 261 259 256 254
317 312 309 306 299 289 278 274 269 267 266 266 264 256 251 252 256 257 259 259 255 250
313 311 307 303 299 294 287 277 271 268 264 262 259 254 251 250 256 256 257 256 253 249